Location: Pasadena, ca
(34.1243°N, 118.1037°W)
Time: 22:58:55
(UTC-08:00)

N. Korean satellite - Pass Details

Date: 10 October 2017
Orbit: 461 x 513 km, 97.2° (Epoch: 12 December)

Event Time Altitude Azimuth Distance (km) Brightness Sun altitude
Rises 19:31:38 0° 189° (S) 2,571 10.3 -14.8°
Reaches altitude 10° 19:33:54 10° 200° (SSW) 1,684 9.5 -15.3°
Maximum altitude 19:37:07 30° 262° (W) 904 8.7 -15.9°
Drops below altitude 10° 19:40:18 10° 325° (NW) 1,667 9.8 -16.6°
Sets 19:42:32 0° 337° (NNW) 2,541 10.6 -17.0°
